Year,Month,Day,Hour,Minute,Value (Times are PST for temperature in C)
2002,06,10,00,00,15.80
2002,06,10,00,01,15.80
2002,06,10,00,02,15.80
2002,06,10,00,03,15.80
2002,06,10,00,04,15.80
2002,06,10,00,05,15.80
2002,06,10,00,06,15.80
2002,06,10,00,07,15.70
2002,06,10,00,08,15.60
2002,06,10,00,09,15.60
2002,06,10,00,10,15.60
2002,06,10,00,11,15.60
2002,06,10,00,12,15.50
2002,06,10,00,13,15.50
2002,06,10,00,14,15.50
2002,06,10,00,15,15.40
2002,06,10,00,16,15.40
2002,06,10,00,17,15.30
2002,06,10,00,18,15.30
2002,06,10,00,19,15.30
2002,06,10,00,20,15.30
2002,06,10,00,21,15.30
2002,06,10,00,22,15.30
2002,06,10,00,23,15.30
2002,06,10,00,24,15.20
2002,06,10,00,25,15.20
2002,06,10,00,26,15.20
2002,06,10,00,27,15.10
2002,06,10,00,28,15.10
2002,06,10,00,29,15.10
2002,06,10,00,30,15.10
2002,06,10,00,31,15.10
2002,06,10,00,32,15.00
2002,06,10,00,33,15.00
2002,06,10,00,34,15.00
2002,06,10,00,35,15.00
2002,06,10,00,36,15.00
2002,06,10,00,37,15.00
2002,06,10,00,38,14.90
2002,06,10,00,39,14.90
2002,06,10,00,40,14.90
2002,06,10,00,41,14.90
2002,06,10,00,42,14.90
2002,06,10,00,43,14.90
2002,06,10,00,44,14.80
2002,06,10,00,45,14.80
2002,06,10,00,46,14.80
2002,06,10,00,47,14.80
2002,06,10,00,48,14.80
2002,06,10,00,49,14.80
2002,06,10,00,50,14.80
2002,06,10,00,51,14.80
2002,06,10,00,52,14.80
2002,06,10,00,53,14.70
2002,06,10,00,54,14.70
2002,06,10,00,55,14.70
2002,06,10,00,56,14.70
2002,06,10,00,57,14.70
2002,06,10,00,58,14.70
2002,06,10,00,59,14.60
2002,06,10,01,00,14.60
2002,06,10,01,01,14.60
2002,06,10,01,02,14.60
2002,06,10,01,03,14.50
2002,06,10,01,04,14.50
2002,06,10,01,05,14.50
2002,06,10,01,06,14.50
2002,06,10,01,07,14.50
2002,06,10,01,08,14.40
2002,06,10,01,09,14.40
2002,06,10,01,10,14.40
2002,06,10,01,11,14.40
2002,06,10,01,12,14.40
2002,06,10,01,13,14.40
2002,06,10,01,14,14.40
2002,06,10,01,15,14.40
2002,06,10,01,16,14.40
2002,06,10,01,17,14.40
2002,06,10,01,18,14.40
2002,06,10,01,19,14.30
2002,06,10,01,20,14.30
2002,06,10,01,21,14.40
2002,06,10,01,22,14.30
2002,06,10,01,23,14.30
2002,06,10,01,24,14.30
2002,06,10,01,25,14.30
2002,06,10,01,26,14.30
2002,06,10,01,27,14.30
2002,06,10,01,28,14.30
2002,06,10,01,29,14.30
2002,06,10,01,30,14.30
2002,06,10,01,31,14.30
2002,06,10,01,32,14.30
2002,06,10,01,33,14.30
2002,06,10,01,34,14.30
2002,06,10,01,35,14.30
2002,06,10,01,36,14.30
2002,06,10,01,37,14.30
2002,06,10,01,38,14.30
2002,06,10,01,39,14.30
2002,06,10,01,40,14.20
2002,06,10,01,41,14.20
2002,06,10,01,42,14.20
2002,06,10,01,43,14.20
2002,06,10,01,44,14.20
2002,06,10,01,45,14.20
2002,06,10,01,46,14.20
2002,06,10,01,47,14.20
2002,06,10,01,48,14.20
2002,06,10,01,49,14.20
2002,06,10,01,50,14.20
2002,06,10,01,51,14.20
2002,06,10,01,52,14.20
2002,06,10,01,53,14.20
2002,06,10,01,54,14.20
2002,06,10,01,55,14.20
2002,06,10,01,56,14.20
2002,06,10,01,57,14.20
2002,06,10,01,58,14.20
2002,06,10,01,59,14.20
2002,06,10,02,00,14.20
2002,06,10,02,01,14.20
2002,06,10,02,02,14.20
2002,06,10,02,03,14.20
2002,06,10,02,04,14.20
2002,06,10,02,05,14.20
2002,06,10,02,06,14.20
2002,06,10,02,07,14.20
2002,06,10,02,08,14.20
2002,06,10,02,09,14.20
2002,06,10,02,10,14.20
2002,06,10,02,11,14.20
2002,06,10,02,12,14.20
2002,06,10,02,13,14.20
2002,06,10,02,14,14.20
2002,06,10,02,15,14.20
2002,06,10,02,16,14.20
2002,06,10,02,17,14.20
2002,06,10,02,18,14.20
2002,06,10,02,19,14.20
2002,06,10,02,20,14.20
2002,06,10,02,21,14.20
2002,06,10,02,22,14.10
2002,06,10,02,23,14.10
2002,06,10,02,24,14.10
2002,06,10,02,25,14.10
2002,06,10,02,26,14.10
2002,06,10,02,27,14.10
2002,06,10,02,28,14.00
2002,06,10,02,29,14.00
2002,06,10,02,30,14.00
2002,06,10,02,31,14.10
2002,06,10,02,32,14.10
2002,06,10,02,33,14.10
2002,06,10,02,34,14.00
2002,06,10,02,35,13.90
2002,06,10,02,36,13.80
2002,06,10,02,37,13.70
2002,06,10,02,38,13.70
2002,06,10,02,39,13.70
2002,06,10,02,40,13.70
2002,06,10,02,41,13.70
2002,06,10,02,42,13.70
2002,06,10,02,43,13.70
2002,06,10,02,44,13.70
2002,06,10,02,45,13.70
2002,06,10,02,46,13.60
2002,06,10,02,47,13.50
2002,06,10,02,48,13.50
2002,06,10,02,49,13.40
2002,06,10,02,50,13.40
2002,06,10,02,51,13.30
2002,06,10,02,52,13.30
2002,06,10,02,53,13.30
2002,06,10,02,54,13.30
2002,06,10,02,55,13.30
2002,06,10,02,56,13.20
2002,06,10,02,57,13.20
2002,06,10,02,58,13.20
2002,06,10,02,59,13.10
2002,06,10,03,00,13.10
2002,06,10,03,01,13.10
2002,06,10,03,02,13.10
2002,06,10,03,03,13.00
2002,06,10,03,04,13.00
2002,06,10,03,05,12.90
2002,06,10,03,06,12.90
2002,06,10,03,07,12.80
2002,06,10,03,08,12.80
2002,06,10,03,09,12.80
2002,06,10,03,10,12.70
2002,06,10,03,11,12.70
2002,06,10,03,12,12.60
2002,06,10,03,13,12.60
2002,06,10,03,14,12.60
2002,06,10,03,15,12.60
2002,06,10,03,16,12.50
2002,06,10,03,17,12.40
2002,06,10,03,18,12.40
2002,06,10,03,19,12.40
2002,06,10,03,20,12.40
2002,06,10,03,21,12.50
2002,06,10,03,22,12.40
2002,06,10,03,23,12.40
2002,06,10,03,24,12.40
2002,06,10,03,25,12.30
2002,06,10,03,26,12.30
2002,06,10,03,27,12.30
2002,06,10,03,28,12.30
2002,06,10,03,29,12.30
2002,06,10,03,30,12.30
2002,06,10,03,31,12.30
2002,06,10,03,32,12.20
2002,06,10,03,33,12.20
2002,06,10,03,34,12.20
2002,06,10,03,35,12.20
2002,06,10,03,36,12.20
2002,06,10,03,37,12.20
2002,06,10,03,38,12.20
2002,06,10,03,39,12.10
2002,06,10,03,40,12.10
2002,06,10,03,41,12.10
2002,06,10,03,42,12.10
2002,06,10,03,43,12.10
2002,06,10,03,44,12.10
2002,06,10,03,45,12.00
2002,06,10,03,46,12.10
2002,06,10,03,47,12.10
2002,06,10,03,48,12.10
2002,06,10,03,49,12.10
2002,06,10,03,50,12.10
2002,06,10,03,51,12.10
2002,06,10,03,52,12.20
2002,06,10,03,53,12.20
2002,06,10,03,54,12.20
2002,06,10,03,55,12.30
2002,06,10,03,56,12.30
2002,06,10,03,57,12.30
2002,06,10,03,58,12.30
2002,06,10,03,59,12.30
2002,06,10,04,00,12.30
2002,06,10,04,01,12.30
2002,06,10,04,02,12.30
2002,06,10,04,03,12.30
2002,06,10,04,04,12.20
2002,06,10,04,05,12.20
2002,06,10,04,06,12.20
2002,06,10,04,07,12.20
2002,06,10,04,08,12.20
2002,06,10,04,09,12.20
2002,06,10,04,10,12.10
2002,06,10,04,11,12.10
2002,06,10,04,12,12.10
2002,06,10,04,13,12.00
2002,06,10,04,14,12.00
2002,06,10,04,15,12.00
2002,06,10,04,16,11.90
2002,06,10,04,17,11.90
2002,06,10,04,18,11.80
2002,06,10,04,19,11.80
2002,06,10,04,20,11.80
2002,06,10,04,21,11.80
2002,06,10,04,22,11.80
2002,06,10,04,23,11.80
2002,06,10,04,24,11.80
2002,06,10,04,25,11.70
2002,06,10,04,26,11.70
2002,06,10,04,27,11.70
2002,06,10,04,28,11.60
2002,06,10,04,29,11.60
2002,06,10,04,30,11.60
2002,06,10,04,31,11.60
2002,06,10,04,32,11.60
2002,06,10,04,33,11.60
2002,06,10,04,34,11.60
2002,06,10,04,35,11.60
2002,06,10,04,36,11.60
2002,06,10,04,37,11.60
2002,06,10,04,38,11.60
2002,06,10,04,39,11.60
2002,06,10,04,40,11.60
2002,06,10,04,41,11.60
2002,06,10,04,42,11.60
2002,06,10,04,43,11.70
2002,06,10,04,44,11.70
2002,06,10,04,45,11.80
2002,06,10,04,46,11.80
2002,06,10,04,47,11.90
2002,06,10,04,48,12.00
2002,06,10,04,49,12.00
2002,06,10,04,50,12.10
2002,06,10,04,51,12.10
2002,06,10,04,52,12.10
2002,06,10,04,53,12.10
2002,06,10,04,54,12.10
2002,06,10,04,55,12.10
2002,06,10,04,56,12.10
2002,06,10,04,57,12.20
2002,06,10,04,58,12.20
2002,06,10,04,59,12.20
2002,06,10,05,00,12.20
2002,06,10,05,01,12.20
2002,06,10,05,02,12.10
2002,06,10,05,03,12.10
2002,06,10,05,04,12.10
2002,06,10,05,05,12.10
2002,06,10,05,06,12.10
2002,06,10,05,07,12.00
2002,06,10,05,08,12.00
2002,06,10,05,09,12.00
2002,06,10,05,10,12.00
2002,06,10,05,11,12.00
2002,06,10,05,12,11.90
2002,06,10,05,13,11.90
2002,06,10,05,14,11.80
2002,06,10,05,15,11.80
2002,06,10,05,16,11.80
2002,06,10,05,17,11.80
2002,06,10,05,18,11.70
2002,06,10,05,19,11.70
2002,06,10,05,20,11.70
2002,06,10,05,21,11.70
2002,06,10,05,22,11.70
2002,06,10,05,23,11.70
2002,06,10,05,24,11.60
2002,06,10,05,25,11.60
2002,06,10,05,26,11.60
2002,06,10,05,27,11.60
2002,06,10,05,28,11.60
2002,06,10,05,29,11.60
2002,06,10,05,30,11.60
2002,06,10,05,31,11.70
2002,06,10,05,32,11.70
2002,06,10,05,33,11.60
2002,06,10,05,34,11.60
2002,06,10,05,35,11.60
2002,06,10,05,36,11.60
2002,06,10,05,37,11.50
2002,06,10,05,38,11.40
2002,06,10,05,39,11.50
2002,06,10,05,40,11.40
2002,06,10,05,41,11.40
2002,06,10,05,42,11.50
2002,06,10,05,43,11.50
2002,06,10,05,44,11.50
2002,06,10,05,45,11.50
2002,06,10,05,46,11.40
2002,06,10,05,47,11.40
2002,06,10,05,48,11.50
2002,06,10,05,49,11.60
2002,06,10,05,50,11.60
2002,06,10,05,51,11.60
2002,06,10,05,52,11.60
2002,06,10,05,53,11.60
2002,06,10,05,54,11.60
2002,06,10,05,55,11.60
2002,06,10,05,56,11.70
2002,06,10,05,57,11.80
2002,06,10,05,58,11.80
2002,06,10,05,59,11.80
2002,06,10,06,00,11.80
2002,06,10,06,01,11.80
2002,06,10,06,02,11.80
2002,06,10,06,03,11.90
2002,06,10,06,04,11.80
2002,06,10,06,05,11.90
2002,06,10,06,06,12.00
2002,06,10,06,07,12.00
2002,06,10,06,08,12.10
2002,06,10,06,09,12.10
2002,06,10,06,10,12.10
2002,06,10,06,11,12.10
2002,06,10,06,12,12.20
2002,06,10,06,13,12.20
2002,06,10,06,14,12.20
2002,06,10,06,15,12.20
2002,06,10,06,16,12.20
2002,06,10,06,17,12.30
2002,06,10,06,18,12.30
2002,06,10,06,19,12.30
2002,06,10,06,20,12.40
2002,06,10,06,21,12.40
2002,06,10,06,22,12.40
2002,06,10,06,23,12.50
2002,06,10,06,24,12.50
2002,06,10,06,25,12.60
2002,06,10,06,26,12.60
2002,06,10,06,27,12.70
2002,06,10,06,28,12.80
2002,06,10,06,29,12.80
2002,06,10,06,30,12.90
2002,06,10,06,31,12.90
2002,06,10,06,32,12.90
2002,06,10,06,33,13.00
2002,06,10,06,34,13.00
2002,06,10,06,35,13.10
2002,06,10,06,36,13.10
2002,06,10,06,37,13.10
2002,06,10,06,38,13.20
2002,06,10,06,39,13.30
2002,06,10,06,40,13.30
2002,06,10,06,41,13.40
2002,06,10,06,42,13.50
2002,06,10,06,43,13.50
2002,06,10,06,44,13.50
2002,06,10,06,45,13.50
2002,06,10,06,46,13.50
2002,06,10,06,47,13.50
2002,06,10,06,48,13.50
2002,06,10,06,49,13.50
2002,06,10,06,50,13.60
2002,06,10,06,51,13.60
2002,06,10,06,52,13.70
2002,06,10,06,53,13.70
2002,06,10,06,54,13.70
2002,06,10,06,55,13.80
2002,06,10,06,56,13.80
2002,06,10,06,57,13.80
2002,06,10,06,58,13.90
2002,06,10,06,59,13.80
2002,06,10,07,00,13.70
2002,06,10,07,01,13.80
2002,06,10,07,02,13.80
2002,06,10,07,03,13.70
2002,06,10,07,04,13.70
2002,06,10,07,05,13.60
2002,06,10,07,06,13.50
2002,06,10,07,07,13.40
2002,06,10,07,08,13.40
2002,06,10,07,09,13.30
2002,06,10,07,10,13.30
2002,06,10,07,11,13.30
2002,06,10,07,12,13.30
2002,06,10,07,13,13.20
2002,06,10,07,14,13.10
2002,06,10,07,15,13.00
2002,06,10,07,16,13.10
2002,06,10,07,17,13.00
2002,06,10,07,18,13.00
2002,06,10,07,19,13.00
2002,06,10,07,20,12.90
2002,06,10,07,21,12.90
2002,06,10,07,22,12.90
2002,06,10,07,23,12.80
2002,06,10,07,24,12.80
2002,06,10,07,25,12.80
2002,06,10,07,26,12.80
2002,06,10,07,27,12.70
2002,06,10,07,28,12.60
2002,06,10,07,29,12.60
2002,06,10,07,30,12.30
2002,06,10,07,31,12.10
2002,06,10,07,32,11.90
2002,06,10,07,33,11.70
2002,06,10,07,34,11.70
2002,06,10,07,35,11.60
2002,06,10,07,36,11.60
2002,06,10,07,37,11.40
2002,06,10,07,38,11.30
2002,06,10,07,39,11.40
2002,06,10,07,40,11.40
2002,06,10,07,41,11.50
2002,06,10,07,42,11.60
2002,06,10,07,43,11.60
2002,06,10,07,44,11.40
2002,06,10,07,45,11.50
2002,06,10,07,46,11.60
2002,06,10,07,47,11.60
2002,06,10,07,48,11.60
2002,06,10,07,49,11.60
2002,06,10,07,50,11.60
2002,06,10,07,51,11.60
2002,06,10,07,52,11.60
2002,06,10,07,53,11.70
2002,06,10,07,54,11.80
2002,06,10,07,55,11.80
2002,06,10,07,56,11.80
2002,06,10,07,57,11.80
2002,06,10,07,58,11.80
2002,06,10,07,59,11.90
2002,06,10,08,00,11.90
2002,06,10,08,01,11.90
2002,06,10,08,02,11.80
2002,06,10,08,03,11.70
2002,06,10,08,04,11.80
2002,06,10,08,05,11.80
2002,06,10,08,06,11.80
2002,06,10,08,07,11.70
2002,06,10,08,08,11.60
2002,06,10,08,09,11.60
2002,06,10,08,10,11.60
2002,06,10,08,11,11.70
2002,06,10,08,12,11.80
2002,06,10,08,13,11.80
2002,06,10,08,14,11.90
2002,06,10,08,15,11.90
2002,06,10,08,16,11.90
2002,06,10,08,17,11.90
2002,06,10,08,18,11.90
2002,06,10,08,19,11.90
2002,06,10,08,20,12.00
2002,06,10,08,21,11.90
2002,06,10,08,22,11.80
2002,06,10,08,23,11.80
2002,06,10,08,24,11.80
2002,06,10,08,25,11.80
2002,06,10,08,26,11.70
2002,06,10,08,27,11.70
2002,06,10,08,28,11.70
2002,06,10,08,29,11.80
2002,06,10,08,30,11.80
2002,06,10,08,31,11.90
2002,06,10,08,32,12.10
2002,06,10,08,33,12.10
2002,06,10,08,34,12.20
2002,06,10,08,35,12.20
2002,06,10,08,36,12.10
2002,06,10,08,37,12.00
2002,06,10,08,38,12.00
2002,06,10,08,39,12.00
2002,06,10,08,40,11.90
2002,06,10,08,41,11.90
2002,06,10,08,42,12.00
2002,06,10,08,43,12.10
2002,06,10,08,44,12.10
2002,06,10,08,45,11.90
2002,06,10,08,46,11.80
2002,06,10,08,47,11.80
2002,06,10,08,48,11.80
2002,06,10,08,49,11.80
2002,06,10,08,50,11.80
2002,06,10,08,51,11.80
2002,06,10,08,52,11.70
2002,06,10,08,53,11.70
2002,06,10,08,54,11.70
2002,06,10,08,55,11.80
2002,06,10,08,56,11.70
2002,06,10,08,57,11.80
2002,06,10,08,58,11.80
2002,06,10,08,59,11.80
2002,06,10,09,00,11.90
2002,06,10,09,01,11.90
2002,06,10,09,02,11.90
2002,06,10,09,03,11.90
2002,06,10,09,04,12.10
2002,06,10,09,05,12.30
2002,06,10,09,06,12.20
2002,06,10,09,07,12.10
2002,06,10,09,08,12.10
2002,06,10,09,09,12.20
2002,06,10,09,10,12.40
2002,06,10,09,11,12.50
2002,06,10,09,12,12.60
2002,06,10,09,13,12.80
2002,06,10,09,14,12.80
2002,06,10,09,15,12.80
2002,06,10,09,16,12.60
2002,06,10,09,17,12.40
2002,06,10,09,18,12.30
2002,06,10,09,19,12.40
2002,06,10,09,20,12.40
2002,06,10,09,21,12.40
2002,06,10,09,22,12.30
2002,06,10,09,23,12.30
2002,06,10,09,24,12.30
2002,06,10,09,25,12.30
2002,06,10,09,26,12.30
2002,06,10,09,27,12.20
2002,06,10,09,28,12.10
2002,06,10,09,29,12.10
2002,06,10,09,30,12.10
2002,06,10,09,31,12.30
2002,06,10,09,32,12.40
2002,06,10,09,33,12.40
2002,06,10,09,34,12.40
2002,06,10,09,35,12.60
2002,06,10,09,36,12.60
2002,06,10,09,37,12.60
2002,06,10,09,38,12.60
2002,06,10,09,39,12.80
2002,06,10,09,40,12.90
2002,06,10,09,41,13.10
2002,06,10,09,42,13.20
2002,06,10,09,43,13.40
2002,06,10,09,44,13.60
2002,06,10,09,45,13.60
2002,06,10,09,46,13.70
2002,06,10,09,47,13.80
2002,06,10,09,48,13.70
2002,06,10,09,49,13.70
2002,06,10,09,50,13.70
2002,06,10,09,51,13.60
2002,06,10,09,52,13.70
2002,06,10,09,53,13.70
2002,06,10,09,54,13.80
2002,06,10,09,55,13.60
2002,06,10,09,56,13.40
2002,06,10,09,57,13.30
2002,06,10,09,58,13.20
2002,06,10,09,59,13.10
2002,06,10,10,00,13.10
2002,06,10,10,01,13.10
2002,06,10,10,02,13.00
2002,06,10,10,03,12.90
2002,06,10,10,04,12.80
2002,06,10,10,05,12.90
2002,06,10,10,06,12.90
2002,06,10,10,07,12.90
2002,06,10,10,08,12.90
2002,06,10,10,09,13.00
2002,06,10,10,10,13.10
2002,06,10,10,11,13.10
2002,06,10,10,12,13.30
2002,06,10,10,13,13.30
2002,06,10,10,14,13.30
2002,06,10,10,15,13.20
2002,06,10,10,16,13.20
2002,06,10,10,17,13.20
2002,06,10,10,18,13.30
2002,06,10,10,19,13.30
2002,06,10,10,20,13.20
2002,06,10,10,21,13.10
2002,06,10,10,22,13.10
2002,06,10,10,23,13.20
2002,06,10,10,24,13.10
2002,06,10,10,25,13.00
2002,06,10,10,26,13.10
2002,06,10,10,27,13.20
2002,06,10,10,28,13.10
2002,06,10,10,29,13.00
2002,06,10,10,30,13.00
2002,06,10,10,31,13.20
2002,06,10,10,32,13.10
2002,06,10,10,33,13.00
2002,06,10,10,34,13.20
2002,06,10,10,35,13.30
2002,06,10,10,36,13.30
2002,06,10,10,37,13.30
2002,06,10,10,38,13.30
2002,06,10,10,39,13.30
2002,06,10,10,40,13.30
2002,06,10,10,41,13.30
2002,06,10,10,42,13.50
2002,06,10,10,43,13.60
2002,06,10,10,44,13.80
2002,06,10,10,45,13.80
2002,06,10,10,46,13.60
2002,06,10,10,47,13.40
2002,06,10,10,48,13.40
2002,06,10,10,49,13.20
2002,06,10,10,50,13.20
2002,06,10,10,51,13.30
2002,06,10,10,52,13.50
2002,06,10,10,53,13.60
2002,06,10,10,54,13.70
2002,06,10,10,55,13.80
2002,06,10,10,56,13.70
2002,06,10,10,57,13.60
2002,06,10,10,58,13.60
2002,06,10,10,59,13.60
2002,06,10,11,00,13.60
2002,06,10,11,01,13.60
2002,06,10,11,02,13.70
2002,06,10,11,03,13.90
2002,06,10,11,04,13.80
2002,06,10,11,05,13.70
2002,06,10,11,06,13.80
2002,06,10,11,07,13.80
2002,06,10,11,08,14.00
2002,06,10,11,09,14.10
2002,06,10,11,10,14.30
2002,06,10,11,11,14.40
2002,06,10,11,12,14.60
2002,06,10,11,13,14.70
2002,06,10,11,14,14.70
2002,06,10,11,15,14.50
2002,06,10,11,16,14.20
2002,06,10,11,17,14.00
2002,06,10,11,18,13.90
2002,06,10,11,19,13.80
2002,06,10,11,20,13.90
2002,06,10,11,21,14.00
2002,06,10,11,22,13.80
2002,06,10,11,23,13.90
2002,06,10,11,24,13.90
2002,06,10,11,25,14.20
2002,06,10,11,26,14.50
2002,06,10,11,27,14.40
2002,06,10,11,28,14.20
2002,06,10,11,29,14.30
2002,06,10,11,30,14.40
2002,06,10,11,31,14.30
2002,06,10,11,32,14.20
2002,06,10,11,33,14.10
2002,06,10,11,34,13.90
2002,06,10,11,35,13.80
2002,06,10,11,36,13.70
2002,06,10,11,37,13.80
2002,06,10,11,38,13.80
2002,06,10,11,39,13.80
2002,06,10,11,40,13.60
2002,06,10,11,41,13.60
2002,06,10,11,42,13.80
2002,06,10,11,43,13.80
2002,06,10,11,44,13.90
2002,06,10,11,45,14.20
2002,06,10,11,46,14.50
2002,06,10,11,47,14.50
2002,06,10,11,48,14.30
2002,06,10,11,49,14.30
2002,06,10,11,50,14.10
2002,06,10,11,51,14.30
2002,06,10,11,52,14.20
2002,06,10,11,53,13.90
2002,06,10,11,54,14.10
2002,06,10,11,55,14.30
2002,06,10,11,56,14.60
2002,06,10,11,57,14.50
2002,06,10,11,58,14.30
2002,06,10,11,59,14.20
2002,06,10,12,00,14.30
2002,06,10,12,01,14.40
2002,06,10,12,02,14.60
2002,06,10,12,03,14.80
2002,06,10,12,04,14.40
2002,06,10,12,05,14.40
2002,06,10,12,06,14.50
2002,06,10,12,07,14.40
2002,06,10,12,08,14.30
2002,06,10,12,09,14.10
2002,06,10,12,10,14.00
2002,06,10,12,11,13.80
2002,06,10,12,12,13.80
2002,06,10,12,13,13.50
2002,06,10,12,14,13.60
2002,06,10,12,15,13.80
2002,06,10,12,16,14.10
2002,06,10,12,17,14.10
2002,06,10,12,18,14.20
2002,06,10,12,19,14.50
2002,06,10,12,20,14.60
2002,06,10,12,21,14.40
2002,06,10,12,22,14.50
2002,06,10,12,23,14.30
2002,06,10,12,24,14.20
2002,06,10,12,25,14.30
2002,06,10,12,26,14.50
2002,06,10,12,27,14.60
2002,06,10,12,28,14.60
2002,06,10,12,29,14.70
2002,06,10,12,30,14.80
2002,06,10,12,31,14.70
2002,06,10,12,32,14.70
2002,06,10,12,33,14.70
2002,06,10,12,34,14.40
2002,06,10,12,35,13.90
2002,06,10,12,36,13.80
2002,06,10,12,37,13.70
2002,06,10,12,38,13.80
2002,06,10,12,39,13.70
2002,06,10,12,40,13.70
2002,06,10,12,41,13.80
2002,06,10,12,42,13.90
2002,06,10,12,43,13.70
2002,06,10,12,44,13.70
2002,06,10,12,45,14.00
2002,06,10,12,46,14.10
2002,06,10,12,47,14.30
2002,06,10,12,48,14.20
2002,06,10,12,49,14.40
2002,06,10,12,50,14.60
2002,06,10,12,51,14.90
2002,06,10,12,52,14.90
2002,06,10,12,53,14.50
2002,06,10,12,54,14.40
2002,06,10,12,55,14.10
2002,06,10,12,56,13.90
2002,06,10,12,57,13.70
2002,06,10,12,58,13.50
2002,06,10,12,59,13.50
2002,06,10,13,00,13.60
2002,06,10,13,01,13.90
2002,06,10,13,02,14.00
2002,06,10,13,03,14.10
2002,06,10,13,04,14.00
2002,06,10,13,05,14.10
2002,06,10,13,06,14.20
2002,06,10,13,07,14.30
2002,06,10,13,08,14.10
2002,06,10,13,09,13.90
2002,06,10,13,10,13.70
2002,06,10,13,11,13.70
2002,06,10,13,12,13.80
2002,06,10,13,13,13.80
2002,06,10,13,14,13.70
2002,06,10,13,15,13.60
2002,06,10,13,16,13.60
2002,06,10,13,17,13.60
2002,06,10,13,18,13.40
2002,06,10,13,19,13.40
2002,06,10,13,20,13.40
2002,06,10,13,21,13.50
2002,06,10,13,22,13.60
2002,06,10,13,23,13.60
2002,06,10,13,24,13.80
2002,06,10,13,25,13.90
2002,06,10,13,26,14.00
2002,06,10,13,27,14.00
2002,06,10,13,28,14.00
2002,06,10,13,29,14.10
2002,06,10,13,30,14.20
2002,06,10,13,31,14.20
2002,06,10,13,32,14.20
2002,06,10,13,33,14.00
2002,06,10,13,34,13.90
2002,06,10,13,35,13.80
2002,06,10,13,36,13.70
2002,06,10,13,37,13.70
2002,06,10,13,38,13.60
2002,06,10,13,39,13.70
2002,06,10,13,40,13.80
2002,06,10,13,41,13.80
2002,06,10,13,42,13.80
2002,06,10,13,43,13.80
2002,06,10,13,44,13.80
2002,06,10,13,45,13.90
2002,06,10,13,46,13.90
2002,06,10,13,47,14.00
2002,06,10,13,48,14.10
2002,06,10,13,49,14.20
2002,06,10,13,50,14.40
2002,06,10,13,51,14.80
2002,06,10,13,52,14.90
2002,06,10,13,53,14.70
2002,06,10,13,54,14.70
2002,06,10,13,55,14.80
2002,06,10,13,56,14.80
2002,06,10,13,57,14.90
2002,06,10,13,58,15.00
2002,06,10,13,59,15.10
2002,06,10,14,00,15.10
2002,06,10,14,01,15.10
2002,06,10,14,02,15.10
2002,06,10,14,03,15.20
2002,06,10,14,04,15.30
2002,06,10,14,05,15.20
2002,06,10,14,06,15.20
2002,06,10,14,07,15.30
2002,06,10,14,08,15.30
2002,06,10,14,09,15.50
2002,06,10,14,10,15.50
2002,06,10,14,11,15.40
2002,06,10,14,12,15.40
2002,06,10,14,13,15.60
2002,06,10,14,14,15.60
2002,06,10,14,15,15.50
2002,06,10,14,16,15.50
2002,06,10,14,17,15.70
2002,06,10,14,18,15.70
2002,06,10,14,19,15.60
2002,06,10,14,20,15.60
2002,06,10,14,21,15.70
2002,06,10,14,22,15.90
2002,06,10,14,23,16.10
2002,06,10,14,24,16.20
2002,06,10,14,25,16.10
2002,06,10,14,26,15.80
2002,06,10,14,27,15.60
2002,06,10,14,28,15.60
2002,06,10,14,29,15.70
2002,06,10,14,30,16.00
2002,06,10,14,31,16.10
2002,06,10,14,32,16.30
2002,06,10,14,33,16.40
2002,06,10,14,34,16.60
2002,06,10,14,35,16.70
2002,06,10,14,36,16.80
2002,06,10,14,37,16.80
2002,06,10,14,38,16.90
2002,06,10,14,39,16.80
2002,06,10,14,40,16.80
2002,06,10,14,41,16.80
2002,06,10,14,42,16.70
2002,06,10,14,43,16.60
2002,06,10,14,44,16.60
2002,06,10,14,45,16.60
2002,06,10,14,46,16.70
2002,06,10,14,47,16.50
2002,06,10,14,48,16.50
2002,06,10,14,49,16.50
2002,06,10,14,50,16.70
2002,06,10,14,51,16.80
2002,06,10,14,52,16.80
2002,06,10,14,53,16.90
2002,06,10,14,54,16.80
2002,06,10,14,55,16.90
2002,06,10,14,56,17.10
2002,06,10,14,57,17.20
2002,06,10,14,58,17.30
2002,06,10,14,59,17.30
2002,06,10,15,00,17.10
2002,06,10,15,01,17.10
2002,06,10,15,02,17.20
2002,06,10,15,03,17.50
2002,06,10,15,04,17.60
2002,06,10,15,05,17.90
2002,06,10,15,06,18.20
2002,06,10,15,07,18.20
2002,06,10,15,08,18.40
2002,06,10,15,09,18.60
2002,06,10,15,10,18.70
2002,06,10,15,11,18.80
2002,06,10,15,12,18.90
2002,06,10,15,13,18.90
2002,06,10,15,14,19.00
2002,06,10,15,15,19.10
2002,06,10,15,16,19.00
2002,06,10,15,17,19.00
2002,06,10,15,18,19.10
2002,06,10,15,19,18.90
2002,06,10,15,20,18.90
2002,06,10,15,21,18.70
2002,06,10,15,22,18.40
2002,06,10,15,23,18.20
2002,06,10,15,24,18.10
2002,06,10,15,25,18.00
2002,06,10,15,26,17.90
2002,06,10,15,27,17.90
2002,06,10,15,28,17.80
2002,06,10,15,29,17.70
2002,06,10,15,30,17.50
2002,06,10,15,31,17.40
2002,06,10,15,32,17.30
2002,06,10,15,33,17.10
2002,06,10,15,34,17.00
2002,06,10,15,35,17.00
2002,06,10,15,36,17.10
2002,06,10,15,37,17.20
2002,06,10,15,38,17.30
2002,06,10,15,39,17.30
2002,06,10,15,40,17.30
2002,06,10,15,41,17.30
2002,06,10,15,42,17.40
2002,06,10,15,43,17.60
2002,06,10,15,44,17.70
2002,06,10,15,45,17.80
2002,06,10,15,46,17.90
2002,06,10,15,47,17.90
2002,06,10,15,48,18.10
2002,06,10,15,49,18.20
2002,06,10,15,50,18.20
2002,06,10,15,51,18.10
2002,06,10,15,52,18.10
2002,06,10,15,53,18.10
2002,06,10,15,54,18.10
2002,06,10,15,55,18.00
2002,06,10,15,56,18.10
2002,06,10,15,57,18.00
2002,06,10,15,58,17.80
2002,06,10,15,59,17.70
2002,06,10,16,00,17.90
2002,06,10,16,01,17.90
2002,06,10,16,02,17.90
2002,06,10,16,03,18.10
2002,06,10,16,04,18.20
2002,06,10,16,05,18.30
2002,06,10,16,06,18.40
2002,06,10,16,07,18.50
2002,06,10,16,08,18.50
2002,06,10,16,09,18.50
2002,06,10,16,10,18.60
2002,06,10,16,11,18.60
2002,06,10,16,12,18.70
2002,06,10,16,13,18.90
2002,06,10,16,14,19.10
2002,06,10,16,15,19.20
2002,06,10,16,16,19.30
2002,06,10,16,17,19.40
2002,06,10,16,18,19.40
2002,06,10,16,19,19.60
2002,06,10,16,20,19.60
2002,06,10,16,21,19.60
2002,06,10,16,22,19.70
2002,06,10,16,23,19.60
2002,06,10,16,24,19.60
2002,06,10,16,25,19.50
2002,06,10,16,26,19.30
2002,06,10,16,27,19.20
2002,06,10,16,28,19.10
2002,06,10,16,29,19.10
2002,06,10,16,30,19.30
2002,06,10,16,31,19.10
2002,06,10,16,32,19.00
2002,06,10,16,33,19.10
2002,06,10,16,34,18.90
2002,06,10,16,35,18.80
2002,06,10,16,36,18.80
2002,06,10,16,37,18.80
2002,06,10,16,38,18.90
2002,06,10,16,39,18.90
2002,06,10,16,40,19.00
2002,06,10,16,41,19.00
2002,06,10,16,42,19.10
2002,06,10,16,43,19.10
2002,06,10,16,44,19.20
2002,06,10,16,45,19.10
2002,06,10,16,46,19.20
2002,06,10,16,47,19.30
2002,06,10,16,48,19.40
2002,06,10,16,49,19.30
2002,06,10,16,50,19.30
2002,06,10,16,51,19.30
2002,06,10,16,52,19.10
2002,06,10,16,53,19.10
2002,06,10,16,54,19.00
2002,06,10,16,55,19.00
2002,06,10,16,56,19.10
2002,06,10,16,57,19.20
2002,06,10,16,58,19.20
2002,06,10,16,59,19.10
2002,06,10,17,00,19.10
2002,06,10,17,01,19.30
2002,06,10,17,02,19.30
2002,06,10,17,03,19.40
2002,06,10,17,04,19.50
2002,06,10,17,05,19.40
2002,06,10,17,06,19.30
2002,06,10,17,07,19.10
2002,06,10,17,08,19.00
2002,06,10,17,09,18.90
2002,06,10,17,10,18.90
2002,06,10,17,11,18.80
2002,06,10,17,12,18.80
2002,06,10,17,13,18.60
2002,06,10,17,14,18.50
2002,06,10,17,15,18.50
2002,06,10,17,16,18.40
2002,06,10,17,17,18.50
2002,06,10,17,18,18.50
2002,06,10,17,19,18.60